Time,TemperatureF,DewpointF,PressureIn,WindDirection,WindDirectionDegrees,WindSpeedMPH,WindSpeedGustMPH,Humidity,HourlyPrecipIn,Conditions,Clouds,dailyrainin,SoftwareType,DateUTC
2013-03-20 00:00:00,52.0,48.0,29.93,North,350,3.0,-999.0,84,-99.99,,,-99.99,,2013-03-19 16:00:00,
2013-03-20 00:23:00,52.0,48.0,29.93,North,350,3.0,-999.0,84,-99.99,,,-99.99,,2013-03-19 16:23:00,
2013-03-20 00:33:00,52.0,48.0,29.93,North,350,3.0,-999.0,84,-99.99,,,-99.99,,2013-03-19 16:33:00,
2013-03-20 00:43:00,52.0,48.0,29.93,North,350,3.0,-999.0,84,-99.99,,,-99.99,,2013-03-19 16:43:00,
2013-03-20 00:53:00,52.0,48.0,29.93,North,350,3.0,-999.0,84,-99.99,,,-99.99,,2013-03-19 16:53:00,
2013-03-20 01:00:00,54.0,48.0,29.93,NNW,340,2.0,-999.0,79,-99.99,,,-99.99,,2013-03-19 17:00:00,
2013-03-20 01:23:00,54.0,48.0,29.93,NNW,340,2.0,-999.0,79,-99.99,,,-99.99,,2013-03-19 17:23:00,
2013-03-20 01:34:00,54.0,48.0,29.93,NNW,340,2.0,-999.0,79,-99.99,,,-99.99,,2013-03-19 17:34:00,
2013-03-20 01:43:00,54.0,48.0,29.93,NNW,340,2.0,-999.0,79,-99.99,,,-99.99,,2013-03-19 17:43:00,
2013-03-20 01:52:00,54.0,48.0,29.93,NNW,340,2.0,-999.0,79,-99.99,,,-99.99,,2013-03-19 17:52:00,
2013-03-20 02:00:00,53.0,48.0,29.91,North,0,0.0,-999.0,81,-99.99,,,-99.99,,2013-03-19 18:00:00,
2013-03-20 02:22:00,53.0,48.0,29.91,North,0,0.0,-999.0,81,-99.99,,,-99.99,,2013-03-19 18:22:00,
2013-03-20 02:33:00,53.0,48.0,29.91,North,0,0.0,-999.0,81,-99.99,,,-99.99,,2013-03-19 18:33:00,
2013-03-20 02:41:00,53.0,48.0,29.91,North,0,0.0,-999.0,81,-99.99,,,-99.99,,2013-03-19 18:41:00,
2013-03-20 02:52:00,53.0,48.0,29.91,North,0,0.0,-999.0,81,-99.99,,,-99.99,,2013-03-19 18:52:00,
2013-03-20 03:00:00,52.0,48.0,29.89,North,350,2.0,-999.0,86,-99.99,,,-99.99,,2013-03-19 19:00:00,
2013-03-20 03:21:00,52.0,48.0,29.89,North,350,2.0,-999.0,86,-99.99,,,-99.99,,2013-03-19 19:21:00,
2013-03-20 03:31:00,52.0,48.0,29.89,North,350,2.0,-999.0,86,-99.99,,,-99.99,,2013-03-19 19:31:00,
2013-03-20 03:41:00,52.0,48.0,29.89,North,350,2.0,-999.0,86,-99.99,,,-99.99,,2013-03-19 19:41:00,
2013-03-20 03:52:00,52.0,48.0,29.89,North,350,2.0,-999.0,86,-99.99,,,-99.99,,2013-03-19 19:52:00,
2013-03-20 04:00:00,52.0,48.0,29.87,North,0,0.0,-999.0,85,-99.99,,,-99.99,,2013-03-19 20:00:00,
2013-03-20 04:22:00,52.0,48.0,29.87,North,0,0.0,-999.0,85,-99.99,,,-99.99,,2013-03-19 20:22:00,
2013-03-20 04:31:00,52.0,48.0,29.87,North,0,0.0,-999.0,85,-99.99,,,-99.99,,2013-03-19 20:31:00,
2013-03-20 04:41:00,52.0,48.0,29.87,North,0,0.0,-999.0,85,-99.99,,,-99.99,,2013-03-19 20:41:00,
2013-03-20 04:52:00,52.0,48.0,29.87,North,0,0.0,-999.0,85,-99.99,,,-99.99,,2013-03-19 20:52:00,
2013-03-20 05:00:00,53.0,47.0,29.85,North,350,5.0,-999.0,81,-99.99,,,-99.99,,2013-03-19 21:00:00,
2013-03-20 05:22:00,53.0,47.0,29.85,North,350,5.0,-999.0,81,-99.99,,,-99.99,,2013-03-19 21:22:00,
2013-03-20 05:32:00,53.0,47.0,29.85,North,350,5.0,-999.0,81,-99.99,,,-99.99,,2013-03-19 21:32:00,
2013-03-20 05:42:00,53.0,47.0,29.85,North,350,5.0,-999.0,81,-99.99,,,-99.99,,2013-03-19 21:42:00,
2013-03-20 05:52:00,53.0,47.0,29.85,North,350,5.0,-999.0,81,-99.99,,,-99.99,,2013-03-19 21:52:00,
2013-03-20 06:00:00,52.0,48.0,29.84,North,0,0.0,-999.0,84,-99.99,,,-99.99,,2013-03-19 22:00:00,
2013-03-20 06:22:00,52.0,48.0,29.84,North,0,0.0,-999.0,84,-99.99,,,-99.99,,2013-03-19 22:22:00,
2013-03-20 06:32:00,52.0,48.0,29.84,North,0,0.0,-999.0,84,-99.99,,,-99.99,,2013-03-19 22:32:00,
2013-03-20 06:42:00,52.0,48.0,29.84,North,0,0.0,-999.0,84,-99.99,,,-99.99,,2013-03-19 22:42:00,
2013-03-20 06:52:00,52.0,48.0,29.84,North,0,0.0,-999.0,84,-99.99,,,-99.99,,2013-03-19 22:52:00,
2013-03-20 07:00:00,53.0,48.0,29.82,North,350,1.0,-999.0,82,-99.99,,,-99.99,,2013-03-19 23:00:00,
2013-03-20 07:21:00,53.0,48.0,29.82,North,350,1.0,-999.0,82,-99.99,,,-99.99,,2013-03-19 23:21:00,
2013-03-20 07:32:00,53.0,48.0,29.82,North,350,1.0,-999.0,82,-99.99,,,-99.99,,2013-03-19 23:32:00,
2013-03-20 07:41:00,53.0,48.0,29.82,North,350,1.0,-999.0,82,-99.99,,,-99.99,,2013-03-19 23:41:00,
2013-03-20 07:51:00,53.0,48.0,29.82,North,350,1.0,-999.0,82,-99.99,,,-99.99,,2013-03-19 23:51:00,
2013-03-20 08:00:00,55.0,47.0,29.80,NNW,330,1.0,-999.0,75,-99.99,,,-99.99,,2013-03-20 00:00:00,
2013-03-20 08:21:00,55.0,47.0,29.80,NNW,330,1.0,-999.0,75,-99.99,,,-99.99,,2013-03-20 00:21:00,
2013-03-20 08:31:00,55.0,47.0,29.80,NNW,330,1.0,-999.0,75,-99.99,,,-99.99,,2013-03-20 00:31:00,
2013-03-20 08:41:00,55.0,47.0,29.80,NNW,330,1.0,-999.0,75,-99.99,,,-99.99,,2013-03-20 00:41:00,
2013-03-20 08:51:00,55.0,47.0,29.80,NNW,330,1.0,-999.0,75,-99.99,,,-99.99,,2013-03-20 00:51:00,
2013-03-20 09:00:00,55.0,47.0,29.80,North,10,2.0,-999.0,73,-99.99,,,-99.99,,2013-03-20 01:00:00,
2013-03-20 09:32:00,55.0,47.0,29.80,North,10,2.0,-999.0,73,-99.99,,,-99.99,,2013-03-20 01:32:00,
2013-03-20 09:41:00,55.0,47.0,29.80,North,10,2.0,-999.0,73,-99.99,,,-99.99,,2013-03-20 01:41:00,
2013-03-20 09:52:00,55.0,47.0,29.80,North,10,2.0,-999.0,73,-99.99,,,-99.99,,2013-03-20 01:52:00,
2013-03-20 10:00:00,57.0,47.0,29.75,North,350,2.0,-999.0,68,-99.99,,,-99.99,,2013-03-20 02:00:00,
2013-03-20 10:21:00,57.0,47.0,29.75,North,350,2.0,-999.0,68,-99.99,,,-99.99,,2013-03-20 02:21:00,
2013-03-20 10:31:00,57.0,47.0,29.75,North,350,2.0,-999.0,68,-99.99,,,-99.99,,2013-03-20 02:31:00,
2013-03-20 10:41:00,57.0,47.0,29.75,North,350,2.0,-999.0,68,-99.99,,,-99.99,,2013-03-20 02:41:00,
2013-03-20 10:52:00,57.0,47.0,29.75,North,350,2.0,-999.0,68,-99.99,,,-99.99,,2013-03-20 02:52:00,
2013-03-20 11:00:00,58.0,48.0,29.69,SW,220,1.0,-999.0,69,-99.99,,,-99.99,,2013-03-20 03:00:00,
2013-03-20 11:21:00,58.0,48.0,29.69,SW,220,1.0,-999.0,69,-99.99,,,-99.99,,2013-03-20 03:21:00,
2013-03-20 11:32:00,58.0,48.0,29.69,SW,220,1.0,-999.0,69,-99.99,,,-99.99,,2013-03-20 03:32:00,
2013-03-20 11:42:00,58.0,48.0,29.69,SW,220,1.0,-999.0,69,-99.99,,,-99.99,,2013-03-20 03:42:00,
2013-03-20 11:52:00,58.0,48.0,29.69,SW,220,1.0,-999.0,69,-99.99,,,-99.99,,2013-03-20 03:52:00,
2013-03-20 12:00:00,57.0,49.0,29.68,SSW,210,2.0,-999.0,75,-99.99,,,-99.99,,2013-03-20 04:00:00,
2013-03-20 12:22:00,57.0,49.0,29.68,SSW,210,2.0,-999.0,75,-99.99,,,-99.99,,2013-03-20 04:22:00,
2013-03-20 12:32:00,57.0,49.0,29.68,SSW,210,2.0,-999.0,75,-99.99,,,-99.99,,2013-03-20 04:32:00,
2013-03-20 12:42:00,57.0,49.0,29.68,SSW,210,2.0,-999.0,75,-99.99,,,-99.99,,2013-03-20 04:42:00,
2013-03-20 12:52:00,57.0,49.0,29.68,SSW,210,2.0,-999.0,75,-99.99,,,-99.99,,2013-03-20 04:52:00,
2013-03-20 13:00:00,56.0,51.0,29.65,NNW,340,3.0,-999.0,84,-99.99,,,-99.99,,2013-03-20 05:00:00,
2013-03-20 13:22:00,56.0,51.0,29.65,NNW,340,3.0,-999.0,84,-99.99,,,-99.99,,2013-03-20 05:22:00,
2013-03-20 13:31:00,56.0,51.0,29.65,NNW,340,3.0,-999.0,84,-99.99,,,-99.99,,2013-03-20 05:31:00,
2013-03-20 13:41:00,56.0,51.0,29.65,NNW,340,3.0,-999.0,84,-99.99,,,-99.99,,2013-03-20 05:41:00,
2013-03-20 13:52:00,56.0,51.0,29.65,NNW,340,3.0,-999.0,84,-99.99,,,-99.99,,2013-03-20 05:52:00,
2013-03-20 14:00:00,56.0,52.0,29.60,NNE,30,3.0,-999.0,87,-99.99,,,-99.99,,2013-03-20 06:00:00,
2013-03-20 14:21:00,56.0,52.0,29.60,NNE,30,3.0,-999.0,87,-99.99,,,-99.99,,2013-03-20 06:21:00,
2013-03-20 14:31:00,56.0,52.0,29.60,NNE,30,3.0,-999.0,87,-99.99,,,-99.99,,2013-03-20 06:31:00,
2013-03-20 14:42:00,56.0,52.0,29.60,NNE,30,3.0,-999.0,87,-99.99,,,-99.99,,2013-03-20 06:42:00,
2013-03-20 14:51:00,56.0,52.0,29.60,NNE,30,3.0,-999.0,87,-99.99,,,-99.99,,2013-03-20 06:51:00,
2013-03-20 15:00:00,57.0,50.0,29.59,NE,40,1.0,-999.0,78,-99.99,,,-99.99,,2013-03-20 07:00:00,
2013-03-20 15:21:00,57.0,50.0,29.59,NE,40,1.0,-999.0,78,-99.99,,,-99.99,,2013-03-20 07:21:00,
2013-03-20 15:31:00,57.0,50.0,29.59,NE,40,1.0,-999.0,78,-99.99,,,-99.99,,2013-03-20 07:31:00,
2013-03-20 15:41:00,57.0,50.0,29.59,NE,40,1.0,-999.0,78,-99.99,,,-99.99,,2013-03-20 07:41:00,
2013-03-20 15:51:00,57.0,50.0,29.59,NE,40,1.0,-999.0,78,-99.99,,,-99.99,,2013-03-20 07:51:00,
2013-03-20 16:21:00,57.0,48.0,29.59,West,270,1.0,-999.0,73,-99.99,,,-99.99,,2013-03-20 08:21:00,
2013-03-20 16:31:00,57.0,48.0,29.59,West,270,1.0,-999.0,73,-99.99,,,-99.99,,2013-03-20 08:31:00,
2013-03-20 16:41:00,57.0,48.0,29.59,West,270,1.0,-999.0,73,-99.99,,,-99.99,,2013-03-20 08:41:00,
2013-03-20 16:51:00,57.0,48.0,29.59,West,270,1.0,-999.0,73,-99.99,,,-99.99,,2013-03-20 08:51:00,
2013-03-20 17:00:00,56.0,49.0,29.59,North,0,0.0,-999.0,76,-99.99,,,-99.99,,2013-03-20 09:00:00,
2013-03-20 17:21:00,56.0,49.0,29.59,North,0,0.0,-999.0,76,-99.99,,,-99.99,,2013-03-20 09:21:00,
2013-03-20 17:32:00,56.0,49.0,29.59,North,0,0.0,-999.0,76,-99.99,,,-99.99,,2013-03-20 09:32:00,
2013-03-20 17:42:00,56.0,49.0,29.59,North,0,0.0,-999.0,76,-99.99,,,-99.99,,2013-03-20 09:42:00,
2013-03-20 17:52:00,56.0,49.0,29.59,North,0,0.0,-999.0,76,-99.99,,,-99.99,,2013-03-20 09:52:00,
2013-03-20 18:22:00,55.0,50.0,29.61,South,190,2.0,-999.0,83,-99.99,,,-99.99,,2013-03-20 10:22:00,
2013-03-20 18:32:00,55.0,50.0,29.61,South,190,2.0,-999.0,83,-99.99,,,-99.99,,2013-03-20 10:32:00,
2013-03-20 18:42:00,55.0,50.0,29.61,South,190,2.0,-999.0,83,-99.99,,,-99.99,,2013-03-20 10:42:00,
2013-03-20 18:52:00,55.0,50.0,29.61,South,190,2.0,-999.0,83,-99.99,,,-99.99,,2013-03-20 10:52:00,
2013-03-20 19:00:00,54.0,50.0,29.65,South,190,3.0,-999.0,83,-99.99,,,-99.99,,2013-03-20 11:00:00,
2013-03-20 19:21:00,54.0,50.0,29.65,South,190,3.0,-999.0,83,-99.99,,,-99.99,,2013-03-20 11:21:00,
2013-03-20 19:31:00,54.0,50.0,29.65,South,190,3.0,-999.0,83,-99.99,,,-99.99,,2013-03-20 11:31:00,
2013-03-20 19:42:00,54.0,50.0,29.65,South,190,3.0,-999.0,83,-99.99,,,-99.99,,2013-03-20 11:42:00,
2013-03-20 19:51:00,54.0,50.0,29.65,South,190,3.0,-999.0,83,-99.99,,,-99.99,,2013-03-20 11:51:00,
2013-03-20 20:00:00,53.0,49.0,29.69,NW,320,5.0,-999.0,84,-99.99,,,-99.99,,2013-03-20 12:00:00,
2013-03-20 20:21:00,53.0,49.0,29.69,NW,320,5.0,-999.0,84,-99.99,,,-99.99,,2013-03-20 12:21:00,
2013-03-20 20:31:00,53.0,49.0,29.69,NW,320,5.0,-999.0,84,-99.99,,,-99.99,,2013-03-20 12:31:00,
2013-03-20 20:41:00,53.0,49.0,29.69,NW,320,5.0,-999.0,84,-99.99,,,-99.99,,2013-03-20 12:41:00,
2013-03-20 20:51:00,53.0,49.0,29.69,NW,320,5.0,-999.0,84,-99.99,,,-99.99,,2013-03-20 12:51:00,
2013-03-20 21:00:00,50.0,38.0,29.77,NNW,330,9.0,-999.0,63,-99.99,,,-99.99,,2013-03-20 13:00:00,
2013-03-20 21:21:00,50.0,38.0,29.77,NNW,330,9.0,-999.0,63,-99.99,,,-99.99,,2013-03-20 13:21:00,
2013-03-20 21:31:00,50.0,38.0,29.77,NNW,330,9.0,-999.0,63,-99.99,,,-99.99,,2013-03-20 13:31:00,
2013-03-20 21:41:00,50.0,38.0,29.77,NNW,330,9.0,-999.0,63,-99.99,,,-99.99,,2013-03-20 13:41:00,
2013-03-20 21:52:00,50.0,38.0,29.77,NNW,330,9.0,-999.0,63,-99.99,,,-99.99,,2013-03-20 13:52:00,
2013-03-20 22:00:00,47.0,36.0,29.81,North,360,21.0,-999.0,64,-99.99,,,-99.99,,2013-03-20 14:00:00,
2013-03-20 22:21:00,47.0,36.0,29.81,North,360,21.0,-999.0,64,-99.99,,,-99.99,,2013-03-20 14:21:00,
2013-03-20 22:31:00,47.0,36.0,29.81,North,360,21.0,-999.0,64,-99.99,,,-99.99,,2013-03-20 14:31:00,
2013-03-20 22:41:00,47.0,36.0,29.81,North,360,21.0,-999.0,64,-99.99,,,-99.99,,2013-03-20 14:41:00,
2013-03-20 22:51:00,47.0,36.0,29.81,North,360,21.0,-999.0,64,-99.99,,,-99.99,,2013-03-20 14:51:00,
2013-03-20 23:00:00,45.0,33.0,29.88,North,350,9.0,-999.0,63,-99.99,,,-99.99,,2013-03-20 15:00:00,
2013-03-20 23:21:00,45.0,33.0,29.88,North,350,9.0,-999.0,63,-99.99,,,-99.99,,2013-03-20 15:21:00,
2013-03-20 23:32:00,45.0,33.0,29.88,North,350,9.0,-999.0,63,-99.99,,,-99.99,,2013-03-20 15:32:00,
2013-03-20 23:42:00,45.0,33.0,29.88,North,350,9.0,-999.0,63,-99.99,,,-99.99,,2013-03-20 15:42:00,
2013-03-20 23:52:00,45.0,33.0,29.88,North,350,9.0,-999.0,63,-99.99,,,-99.99,,2013-03-20 15:52:00,